[[{"header":{"parameterUnit":"m.s-1","parameterCategory":1,"la1":30.2991,"la2":30.254,"lo1":-89.0895,"lo2":-89.0444,"dy":0.0017,"dx":0.0017,"nx":28,"ny":28,"refTime":"2025-12-21T03:00:00:Z","depth":0,"parameterNumber":2,"parameterNumberName":"U-component_of_WINDS"},"data":[0,0,0,0,0,0,0,0,0,0,0,0,0,0,0,0,0,0,0,0,0,0,0,0,0,0,0,0,0,0,0,0,0,0,0,0,0,0,0,0,0,0,0,0,0,0,0,0,0,0,0,0,0,0,0,0,0,0,-2.2816,-2.2817,0,-2.2923,-2.2925,-2.2926,-2.2944,-2.2943,-2.2942,-2.2942,-2.305,-2.3054,-2.3058,0,0,0,0,0,0,0,0,0,0,0,0,0,-2.2624,-2.2627,-2.2816,-2.2817,-2.2818,-2.2923,-2.2925,-2.2926,-2.2944,-2.2943,-2.2942,-2.2941,-2.3049,-2.3054,-2.3058,0,0,0,0,0,0,0,0,0,0,0,0,0,-2.2717,-2.2628,-2.2815,-2.284,-2.2843,-2.2923,-2.2925,-2.2927,-2.2945,-2.2943,-2.2942,-2.2941,-2.3048,-2.3053,-2.3059,-2.3121,0,0,-2.3076,-2.3078,0,0,0,0,0,0,0,0,-2.2712,-2.2724,-2.2835,-2.2839,-2.2842,-2.2919,-2.2897,-2.2992,-2.2945,-2.2906,-2.2942,-2.294,-2.3008,-2.3016,-2.304,-2.3126,-2.313,-2.3076,-2.308,-2.3082,-2.3084,0,0,0,0,0,0,0,-2.2705,-2.2719,-2.2858,-2.2837,-2.2841,-2.2845,-2.2857,-2.2915,-2.2963,-2.2909,-2.2911,-2.2924,-2.3009,-2.3034,-2.3042,-2.3132,-2.3076,-2.3081,-2.3085,-2.3087,-2.3272,-2.3274,0,0,0,0,0,0,-2.2694,-2.2714,-2.2855,-2.2861,-2.2772,-2.285,-2.2863,-2.2896,-2.2963,-2.2972,-2.2925,-2.2924,-2.3025,-2.3036,-2.3046,-2.3122,-2.3082,-2.3087,-2.3091,-2.3271,-2.3273,-2.3274,0,0,0,0,0,0,-2.269,-2.2707,-2.285,-2.2788,-2.2807,-2.2855,-2.2891,-2.2899,-2.2923,-2.2974,-2.2983,-2.2941,-2.3025,-2.3038,-2.3102,-2.3126,-2.309,-2.3095,-2.3269,-2.3271,-2.3273,-2.3274,0,0,0,0,0,0,-2.2685,-2.2705,-2.273,-2.2789,-2.281,-2.2905,-2.2893,-2.2902,-2.2933,-2.2934,-2.2992,-2.3,-2.3025,-2.3093,-2.3107,-2.3133,-2.3099,-2.3267,-2.327,-2.3273,-2.3272,-2.3276,-2.3279,0,0,0,0,0,-2.2678,-2.2726,-2.2731,-2.2748,-2.2842,-2.2906,-2.2918,-2.2946,-2.2935,-2.296,-2.2992,-2.2998,-2.3121,-2.3099,-2.3115,-2.3143,-2.3265,-2.3269,-2.3272,-2.327,-2.3275,-2.3279,0,0,0,0,0,0,-2.2668,-2.2734,-2.274,-2.2809,-2.2852,-2.2909,-2.2941,-2.295,-2.2997,-2.2995,-2.3026,-2.3039,-2.3101,-2.3129,-2.3103,-2.3206,-2.3192,-2.3199,-2.3185,-2.319,-2.3194,-2.3185,-2.3104,0,0,0,0,0,-2.2674,-2.2721,-2.2776,-2.2831,-2.2852,-2.2893,-2.2922,-2.2939,-2.2985,-2.3003,-2.304,-2.3083,-2.3132,-2.3163,-2.321,-2.3276,-2.3288,-2.3303,-2.3307,-2.3309,-2.3314,-2.335,-2.3356,-2.3286,-2.3286,-2.3286,0,0,-2.2687,-2.2728,-2.2756,-2.283,-2.2865,-2.2913,-2.2908,-2.2959,-2.2994,-2.3011,-2.3072,-2.3101,-2.3151,-2.3216,-2.3246,-2.3241,-2.3337,-2.3314,-2.3316,-2.3319,-2.3354,-2.3361,-2.3367,-2.3288,-2.3288,-2.3287,0,0,-2.2733,-2.277,-2.2819,-2.2855,-2.2908,-2.2935,-2.2946,-2.3003,-2.3022,-2.3085,-2.3098,-2.314,-2.3223,-2.3258,-2.3286,-2.3345,-2.3352,-2.336,-2.3379,-2.3413,-2.3418,-2.3423,-2.3443,-2.3449,-2.3365,-2.3365,-2.3365,0,-2.2742,-2.2814,-2.2843,-2.2893,-2.2924,-2.2942,-2.2991,-2.3024,-2.309,-2.3111,-2.3105,-2.3208,-2.3243,-2.3315,-2.333,-2.3353,-2.3366,-2.3353,-2.3415,-2.3421,-2.3426,-2.3444,-2.3452,-2.3365,-2.3365,-2.3365,-2.3365,0,-2.2821,-2.2871,-2.2904,-2.2967,-2.3003,-2.3052,-2.3088,-2.312,-2.3134,-2.3161,-2.3224,-2.3267,-2.3322,-2.3341,-2.3356,-2.3415,-2.341,-2.3409,-2.3396,-2.3432,-2.345,-2.3458,-2.3366,-2.3366,-2.3366,-2.3366,0,0,-2.2864,-2.2942,-2.2954,-2.2982,-2.3042,-2.3081,-2.313,-2.3185,-2.3211,-2.3256,-2.3298,-2.3367,-2.3366,-2.3399,-2.3417,-2.3447,-2.3489,-2.3443,-2.3444,-2.3448,-2.3555,-2.3554,-2.3562,-2.3495,-2.3496,-2.3497,-2.355,0,-2.2916,-2.3005,-2.3033,-2.3107,-2.3153,-2.317,-2.3213,-2.3254,-2.328,-2.3322,-2.3352,-2.3399,-2.3396,-2.3415,-2.3446,-2.3477,-2.3511,-2.3474,-2.3532,-2.3534,-2.3517,-2.3572,-2.3571,-2.3619,-2.3558,-2.3559,-2.356,0,-2.2989,-2.3035,-2.3114,-2.3167,-2.3187,-2.3225,-2.3276,-2.3317,-2.3363,-2.338,-2.3416,-2.3432,-2.3483,-2.3469,-2.3539,-2.3514,-2.3539,-2.3558,-2.356,-2.3565,-2.3548,-2.3577,-2.3635,-2.3641,-2.3572,-2.3571,-2.357,0,-2.301,-2.3092,-2.3149,-2.3173,-2.3237,-2.3263,-2.3291,-2.3336,-2.3366,-2.3412,-2.3431,-2.3482,-2.3509,-2.3547,-2.3576,-2.3563,-2.3643,-2.3631,-2.3657,-2.3656,-2.3672,-2.367,-2.3733,-2.3691,-2.3691,-2.3691,-2.3691,0,-2.3065,-2.3112,-2.3159,-2.3194,-2.3247,-2.3278,-2.3329,-2.3358,-2.3398,-2.3438,-2.3456,-2.3493,-2.353,-2.3572,-2.3594,-2.3648,-2.3661,-2.3675,-2.368,-2.3672,-2.367,-2.3688,-2.3685,-2.3693,-2.3692,-2.3692,-2.3692,0,-2.3096,-2.313,-2.3194,-2.3249,-2.3264,-2.33,-2.3347,-2.3381,-2.3408,-2.3459,-2.3472,-2.3515,-2.3565,-2.3597,-2.3661,-2.3677,-2.3735,-2.374,-2.3719,-2.3721,-2.3745,-2.3741,-2.382,-2.3831,-2.3783,-2.3783,-2.3784,0,-2.3128,-2.3165,-2.3224,-2.3252,-2.328,-2.3325,-2.3356,-2.3388,-2.342,-2.3475,-2.3502,-2.3553,-2.3596,-2.3675,-2.3711,-2.3759,-2.3765,-2.3789,-2.3772,-2.3763,-2.3763,-2.376,-2.3763,-2.3791,-2.3791,-2.3792,-2.3792,0,-2.318,-2.3195,-2.324,-2.329,-2.3326,-2.3367,-2.3408,-2.343,-2.3469,-2.3503,-2.3555,-2.3588,-2.3653,-2.3703,-2.3755,-2.3782,-2.3793,-2.3797,-2.3806,-2.3797,-2.3783,-2.3789,-2.3724,-2.3795,-2.3795,-2.3795,-2.3794,-2.3794,-2.3212,-2.3245,-2.3291,-2.3339,-2.3374,-2.3411,-2.3446,-2.3477,-2.352,-2.3576,-2.3592,-2.3645,-2.3689,-2.376,-2.3789,-2.383,-2.3827,-2.384,-2.3843,-2.3845,-2.3844,-2.3778,-2.384,-2.384,-2.384,-2.384,-2.384,0,-2.3264,-2.3294,-2.3338,-2.3395,-2.3433,-2.3441,-2.3486,-2.3517,-2.3563,-2.3604,-2.3646,-2.3704,-2.3752,-2.3792,-2.3842,-2.3867,-2.3873,-2.3879,-2.3877,-2.3882,-2.3844,-2.3831,-2.3873,-2.3873,-2.3873,-2.3873,-2.3873,-2.3873,-2.3295,-2.335,-2.337,-2.3441,-2.3472,-2.3524,-2.3549,-2.3583,-2.3616,-2.368,-2.3721,-2.3746,-2.3786,-2.3839,-2.3883,-2.3894,-2.391,-2.3915,-2.3926,-2.3889,-2.3885,-2.3882,-2.387,-2.3919,-2.3919,-2.396,-2.3961,-2.3961]},{"header":{"parameterUnit":"m.s-1","parameterCategory":1,"la1":30.2991,"la2":30.254,"lo1":-89.0895,"lo2":-89.0444,"dy":0.0017,"dx":0.0017,"nx":28,"ny":28,"refTime":"2025-12-21T03:00:00:Z","depth":0,"parameterNumber":3,"parameterNumberName":"V-component_of_WINDS"},"data":[0,0,0,0,0,0,0,0,0,0,0,0,0,0,0,0,0,0,0,0,0,0,0,0,0,0,0,0,0,0,0,0,0,0,0,0,0,0,0,0,0,0,0,0,0,0,0,0,0,0,0,0,0,0,0,0,0,0,0.3431,0.3432,0,0.3437,0.3437,0.3437,0.3388,0.3386,0.3385,0.3384,0.339,0.3391,0.3393,0,0,0,0,0,0,0,0,0,0,0,0,0,0.3381,0.3382,0.3431,0.3432,0.3432,0.3437,0.3437,0.3437,0.3388,0.3386,0.3385,0.3383,0.3389,0.3391,0.3393,0,0,0,0,0,0,0,0,0,0,0,0,0,0.3396,0.3383,0.3431,0.3408,0.3406,0.3437,0.3437,0.3437,0.3388,0.3386,0.3384,0.3382,0.3389,0.3391,0.3393,0.3448,0,0,0.34,0.3401,0,0,0,0,0,0,0,0,0.3396,0.3398,0.3411,0.3409,0.3407,0.3409,0.3421,0.3441,0.3389,0.3395,0.3384,0.3381,0.3398,0.3399,0.3405,0.3448,0.3448,0.34,0.3401,0.3402,0.3403,0,0,0,0,0,0,0,0.3395,0.3398,0.3434,0.3411,0.3409,0.3398,0.3398,0.3425,0.3408,0.3394,0.3391,0.3392,0.3397,0.3403,0.3405,0.3448,0.34,0.3402,0.3403,0.3404,0.3539,0.3542,0,0,0,0,0,0,0.3397,0.3397,0.3433,0.3434,0.3396,0.34,0.34,0.3411,0.3408,0.3405,0.3394,0.339,0.34,0.3402,0.3405,0.3471,0.3402,0.3404,0.3405,0.3537,0.354,0.3542,0,0,0,0,0,0,0.3396,0.34,0.3433,0.3415,0.3418,0.3403,0.3416,0.3412,0.3418,0.3407,0.3404,0.3403,0.3399,0.3402,0.3438,0.347,0.3405,0.3407,0.3534,0.3538,0.3541,0.3602,0,0,0,0,0,0,0.3394,0.34,0.342,0.3415,0.3419,0.3466,0.3418,0.3414,0.3422,0.3417,0.3415,0.3413,0.3397,0.3435,0.344,0.3472,0.3409,0.3532,0.3536,0.354,0.3597,0.3607,0.3616,0,0,0,0,0,0.3393,0.3436,0.3421,0.3426,0.3444,0.3468,0.347,0.3451,0.3425,0.3445,0.3439,0.3413,0.3466,0.3439,0.3444,0.3478,0.3529,0.3535,0.354,0.3593,0.3605,0.3616,0,0,0,0,0,0,0.3445,0.3435,0.3418,0.3462,0.3466,0.3459,0.3485,0.3464,0.3476,0.3471,0.3446,0.3447,0.3488,0.3486,0.3457,0.3532,0.3493,0.35,0.3532,0.3543,0.3552,0.3553,0.3411,0,0,0,0,0,0.3462,0.3482,0.3472,0.3511,0.3514,0.3499,0.3509,0.3494,0.3498,0.3499,0.3495,0.35,0.3518,0.353,0.3545,0.3596,0.3597,0.3622,0.3631,0.3639,0.3645,0.3675,0.3687,0.3559,0.3559,0.3559,0,0,0.3496,0.3493,0.3507,0.3522,0.3523,0.3546,0.3501,0.3526,0.3543,0.3503,0.3538,0.3535,0.3539,0.3584,0.3603,0.3583,0.368,0.3645,0.3651,0.3654,0.3682,0.3694,0.3704,0.3563,0.3562,0.3562,0,0,0.3571,0.357,0.3604,0.3607,0.361,0.36,0.3608,0.3605,0.3602,0.3636,0.3608,0.3628,0.3658,0.3663,0.3669,0.3749,0.3727,0.3754,0.3804,0.3833,0.3843,0.3852,0.3883,0.3894,0.376,0.376,0.3761,0,0.3614,0.3646,0.3624,0.3652,0.366,0.3625,0.3661,0.3664,0.3673,0.368,0.3657,0.3697,0.3697,0.3744,0.3763,0.3769,0.3779,0.3755,0.3843,0.3852,0.386,0.3889,0.3901,0.3764,0.3764,0.3763,0.3763,0,0.37,0.3722,0.375,0.3759,0.377,0.3802,0.3786,0.38,0.3785,0.3777,0.3814,0.3813,0.3829,0.3839,0.3823,0.3884,0.3873,0.3847,0.3808,0.3876,0.3903,0.3914,0.3769,0.3768,0.3767,0.3766,0,0,0.3808,0.3806,0.3817,0.3822,0.3824,0.3841,0.3872,0.3888,0.3902,0.3909,0.3936,0.3963,0.394,0.3948,0.3933,0.3958,0.4025,0.393,0.3929,0.395,0.4095,0.4116,0.413,0.4009,0.4011,0.4013,0.4096,0,0.3883,0.3935,0.3917,0.3971,0.3994,0.3961,0.3988,0.3993,0.3988,0.4007,0.4,0.4022,0.3988,0.3993,0.4017,0.4012,0.4054,0.4005,0.4036,0.4037,0.4039,0.4143,0.4165,0.4244,0.4106,0.4108,0.4109,0,0.3978,0.399,0.4046,0.4047,0.4055,0.408,0.4095,0.4112,0.4118,0.4112,0.4122,0.4102,0.4134,0.4093,0.4138,0.4105,0.4117,0.4116,0.4119,0.4123,0.4079,0.4153,0.4268,0.4281,0.4125,0.4124,0.4123,0,0.4055,0.4085,0.4123,0.4128,0.4129,0.4147,0.4149,0.4152,0.4164,0.4176,0.4184,0.42,0.421,0.4223,0.4209,0.4181,0.4257,0.4215,0.4255,0.4256,0.4275,0.4274,0.4396,0.4278,0.4278,0.4277,0.4277,0,0.4142,0.4179,0.4158,0.4182,0.4223,0.4202,0.4243,0.4241,0.4244,0.4268,0.4241,0.4264,0.4243,0.4264,0.4253,0.4294,0.4297,0.4295,0.4292,0.4299,0.43,0.4308,0.4303,0.428,0.428,0.4279,0.4279,0,0.4236,0.4223,0.4263,0.4261,0.4261,0.4292,0.429,0.4313,0.4306,0.4337,0.4343,0.4332,0.4356,0.4343,0.4368,0.436,0.4414,0.4402,0.4412,0.441,0.4453,0.445,0.4586,0.4604,0.4472,0.4473,0.4474,0,0.4294,0.4321,0.4322,0.4337,0.434,0.4363,0.4375,0.4356,0.437,0.438,0.4402,0.4424,0.4441,0.4482,0.4476,0.4496,0.4486,0.4532,0.4489,0.4496,0.4491,0.449,0.4494,0.4542,0.4544,0.4545,0.4546,0,0.4399,0.4392,0.441,0.4428,0.4443,0.4455,0.4466,0.4479,0.446,0.4478,0.4503,0.4516,0.4542,0.4565,0.4583,0.4585,0.4564,0.4559,0.457,0.4579,0.4585,0.4586,0.4439,0.4557,0.4556,0.4555,0.4554,0.4554,0.4478,0.4503,0.4508,0.453,0.4536,0.4547,0.4569,0.4565,0.4586,0.4606,0.4593,0.4623,0.463,0.4651,0.4656,0.468,0.4662,0.4677,0.4681,0.4686,0.4694,0.4579,0.4683,0.4683,0.4682,0.4682,0.4682,0,0.4585,0.4587,0.4608,0.4624,0.4642,0.4619,0.463,0.4647,0.4674,0.4682,0.47,0.473,0.4752,0.4749,0.4771,0.4791,0.4782,0.4797,0.4797,0.4799,0.4707,0.4697,0.4805,0.4805,0.4805,0.4805,0.4804,0.4804,0.4643,0.4683,0.4677,0.4722,0.4723,0.4753,0.4761,0.4772,0.4779,0.4814,0.4833,0.483,0.4835,0.4856,0.4877,0.4876,0.4886,0.4906,0.4902,0.4817,0.4805,0.4793,0.4784,0.4908,0.4908,0.4991,0.4992,0.4993]}]]